GFSSGP_con_lsi_198.txt.gz
Lid_Strength_Index
1 2 6 7 11 13 14 13 10 11 10 9 7 7 9 8 10 12 3 1 0 0 -0 -0 -1 -1 -2 -2 -1 -1 -2 -2 -2 -2 -2 -2 -2 -2 -2 -2 -2 -2 -2 -2 -2 -1 -1 -1 -1
3 3 6 10 13 16 15 13 12 10 8 7 7 8 9 10 6 4 3 0 -0 -0 -0 0 -1 -1 -1 -2 -2 -1 -1 -2 -2 -2 -2 -2 -2 -2 -2 -2 -2 -2 -2 -2 -1 -1 -0 -1 -1
3 5 8 11 15 15 14 11 10 9 7 9 8 6 8 9 6 4 2 0 -0 0 -0 -0 -1 -1 -1 -1 -2 -2 -2 -1 -2 -2 -2 -2 -2 -2 -2 -1 -1 -1 -1 -1 -1 -1 -0 -0 -1
6 6 8 12 14 14 11 11 10 9 9 8 7 10 6 4 4 2 0 -0 0 0 -0 -0 -1 -1 -1 -1 -1 -2 -2 -2 -2 -2 -2 -2 -2 -2 -2 -2 -1 -1 -1 -1 -1 -1 -1 -1 -1
6 8 11 13 13 14 12 10 9 9 9 8 7 10 9 4 2 1 1 0 1 0 0 -0 -1 -1 -1 -1 -1 -1 -2 -2 -2 -2 -2 -2 -2 -2 -2 -2 -2 -1 -1 -1 -1 -1 -1 -1 -1
8 9 13 15 14 13 10 9 9 9 8 8 8 9 9 4 2 1 1 1 0 0 0 -0 0 -0 -1 -1 -1 -1 -1 -2 -2 -2 -2 -2 -2 -2 -2 -1 -1 -1 -1 -1 -1 -1 -1 -1 -1
9 11 13 13 14 12 10 9 9 9 9 8 6 10 8 6 3 1 1 1 1 1 0 0 0 0 1 -0 -0 -1 -1 -1 -1 -2 -2 -2 -2 -2 -2 -2 -2 -1 -1 -1 -1 -1 -1 -0 -0
9 10 12 11 14 13 12 10 9 8 9 6 6 9 9 5 2 2 2 2 2 1 1 1 1 1 1 1 1 0 -0 -1 -1 -1 -1 -0 -1 -1 -1 -1 -1 -1 -1 -1 -1 -1 -1 -1 -0
8 11 13 11 11 11 11 12 10 9 8 7 7 6 5 3 2 2 2 2 2 1 1 1 1 1 1 1 1 2 1 1 1 1 1 1 0 0 0 0 -1 -2 -2 -2 -1 -1 -1 -1 -0
10 11 11 9 10 10 11 11 10 9 10 8 7 6 4 3 3 3 4 3 3 2 1 1 1 1 1 -0 1 1 1 1 1 1 1 1 1 1 0 1 0 -1 -1 -2 -2 -2 -1 -0 2
10 11 10 10 8 9 10 11 10 11 11 9 8 6 5 5 4 4 3 3 3 2 1 1 2 1 1 0 1 1 1 2 2 2 2 1 1 2 2 2 2 2 2 1 0 1 1 2 2
12 10 9 9 10 9 10 9 10 10 10 8 8 5 4 5 4 4 4 3 2 2 2 1 2 2 2 1 1 1 1 2 3 2 3 3 3 3 3 3 3 3 2 2 2 3 3 3 2
12 11 10 10 10 11 10 10 10 9 8 8 7 5 5 5 4 3 3 3 3 3 2 2 2 2 2 2 2 2 1 1 1 2 2 2 3 3 4 3 3 3 3 3 3 3 3 4 3
11 12 12 11 11 11 10 11 10 10 9 8 6 5 5 5 4 4 4 4 3 3 2 2 2 2 2 2 2 1 1 1 2 2 2 2 2 2 2 3 3 3 3 3 3 3 3 4 4
11 13 13 12 11 11 10 12 11 9 9 9 7 6 5 5 4 4 3 3 2 2 2 2 2 2 2 3 2 2 1 1 1 1 1 1 1 2 2 2 2 2 3 3 3 3 4 4 4
13 15 17 14 13 11 11 15 11 11 11 10 10 9 6 5 4 3 3 3 2 2 2 2 1 2 2 2 2 2 2 2 2 2 2 1 1 1 1 1 2 2 2 3 3 4 4 5 5
16 19 18 15 13 14 13 14 12 11 12 12 11 11 10 9 7 4 3 3 3 3 2 2 1 2 2 2 2 2 2 2 2 3 3 3 3 2 2 2 1 2 3 4 4 4 5 5 6
17 18 17 17 15 15 15 14 12 11 11 11 11 11 11 11 10 8 4 2 2 2 2 2 2 1 2 2 2 2 2 2 2 2 2 3 3 3 3 3 2 3 3 3 4 4 5 5 5
15 16 17 16 15 16 16 16 14 13 12 11 11 11 11 11 10 10 9 6 3 2 2 2 2 2 2 2 3 2 2 2 2 2 2 2 2 3 3 3 3 4 3 3 4 4 5 5 6
15 16 17 14 14 15 16 16 14 14 14 13 12 12 11 11 11 11 10 10 8 4 3 2 2 1 1 1 1 2 2 2 1 1 1 1 2 2 2 2 2 3 3 3 4 4 5 5 5
16 16 17 16 14 15 17 18 17 14 15 14 13 12 11 12 12 12 11 11 10 9 5 3 2 2 1 1 2 3 3 4 4 3 2 2 1 1 2 2 2 2 2 2 2 3 3 4 4
16 14 14 14 16 20 17 23 18 16 14 14 12 12 13 14 13 12 13 12 12 11 10 5 4 3 2 1 2 2 2 3 2 2 2 2 2 2 2 2 2 2 2 2 2 3 3 2 3
15 12 13 14 17 18 19 20 19 17 16 14 14 13 14 13 13 12 11 11 11 11 11 10 9 5 3 2 2 2 2 2 2 3 3 3 2 2 2 2 2 2 2 2 2 2 2 2 3
11 12 13 14 16 23 19 19 21 18 16 15 14 13 13 13 13 12 12 11 11 11 11 10 9 8 7 4 2 2 3 2 3 3 3 2 2 2 2 2 2 2 2 2 2 2 2 2 2
12 14 20 20 20 23 19 19 19 16 15 15 13 12 13 13 13 13 13 12 12 11 10 9 9 9 8 8 7 5 3 3 3 3 2 2 2 2 2 2 2 2 2 2 2 2 3 2 3
12 12 17 21 21 22 18 20 18 15 14 13 13 12 11 12 12 12 12 13 12 12 11 10 10 9 8 8 8 8 7 7 5 3 2 1 1 2 1 1 1 2 2 2 2 2 2 2 2
13 15 12 16 23 21 19 17 15 14 13 12 12 11 12 11 11 11 11 12 11 11 10 10 10 10 9 8 7 7 7 7 7 7 6 5 3 2 1 1 1 1 2 2 1 2 1 2 2
11 10 16 16 23 25 19 19 18 16 14 13 13 12 12 11 10 10 10 10 11 10 10 9 9 10 9 9 9 8 7 7 7 7 7 6 5 4 3 2 1 1 1 1 1 1 1 1 1
13 14 14 14 15 20 22 20 16 14 13 13 13 12 12 11 11 10 9 10 10 10 10 10 10 9 10 9 9 9 8 8 8 7 7 6 6 5 5 4 3 2 1 1 1 1 1 2 2
11 13 13 17 18 16 16 17 12 12 12 12 13 12 12 11 11 11 10 10 10 10 10 11 10 10 10 9 9 9 9 9 9 9 9 8 8 6 6 5 5 4 3 2 1 2 2 2 2

GFSSGP_con_lsi_201.txt.gz
Lid_Strength_Index
1 -0 4 5 9 11 13 11 9 9 9 7 6 7 8 7 9 11 1 0 -0 -0 -1 -1 -1 -2 -2 -2 -2 -2 -2 -2 -2 -2 -2 -2 -2 -2 -2 -2 -2 -2 -2 -2 -1 -1 -2 -2 -2
3 3 5 8 11 13 13 11 10 8 7 6 6 6 7 8 5 4 3 0 -0 -0 -1 -1 -1 -1 -2 -1 -2 -2 -2 -2 -2 -2 -2 -2 -2 -2 -2 -2 -2 -2 -2 -2 -1 -1 -1 -1 -1
2 4 6 10 13 13 12 10 9 8 6 7 7 5 6 7 4 3 1 -0 -0 -0 -1 -1 -1 -1 -2 -2 -1 -2 -2 -2 -2 -2 -2 -2 -2 -2 -2 -2 -2 -2 -2 -2 -1 -1 -1 -1 -1
4 5 6 10 12 11 10 9 8 8 7 6 6 8 5 3 3 2 0 0 1 -0 -1 -1 -1 -1 -1 -2 -2 -1 -2 -2 -2 -2 -2 -2 -2 -2 -2 -2 -1 -1 -1 -1 -1 -1 -1 -0 -0
5 6 11 12 11 11 11 8 8 8 8 7 6 8 7 3 1 1 0 1 1 -0 -1 -1 -1 -1 -1 -1 -2 -2 -2 -2 -2 -2 -2 -2 -2 -2 -2 -2 -1 -1 -1 -1 -1 -1 -1 -1 -1
7 8 12 13 11 11 8 7 8 8 7 6 7 7 6 2 2 1 0 1 -0 -0 -1 -1 0 -0 -1 -1 -1 -1 -2 -2 -2 -2 -2 -2 -2 -2 -2 -2 -1 -1 -1 -1 -1 -1 -1 -1 -1
8 9 12 11 11 10 8 7 8 8 7 7 5 8 5 4 2 2 1 1 -0 -1 -1 -1 -1 -0 1 0 -0 -1 -1 -1 -2 -2 -2 -2 -2 -2 -2 -2 -2 -1 -1 -1 -1 -1 -1 -1 -0
8 8 11 10 13 11 10 8 8 7 7 4 4 7 6 4 1 2 1 1 0 -0 -0 -1 -1 -1 -1 -1 1 1 -0 -1 -2 -1 -1 -0 -1 -1 -1 -1 -1 -1 -1 -1 -1 -1 -1 -1 -1
7 10 12 10 11 10 9 10 8 7 6 6 5 5 4 2 2 3 2 2 1 1 -0 -0 -1 -1 -1 -1 -0 1 1 0 0 0 1 1 -1 -1 -1 -0 -1 -2 -2 -2 -2 -1 -2 -2 -1
8 11 11 8 9 9 9 9 9 8 8 7 5 4 3 3 3 4 4 3 2 2 1 0 -0 -1 -1 -1 -1 -1 -1 -1 -1 -1 -1 -1 -1 -1 -1 0 0 -1 -1 -2 -2 -2 -1 -1 -1
9 10 9 9 8 8 9 9 9 9 9 8 7 5 4 4 4 3 3 3 3 2 1 0 0 -0 -1 -1 -1 -1 -1 -1 -1 -1 -1 -1 -1 -1 -1 -1 -1 -1 1 -1 -1 -1 -1 -1 -1
10 9 8 9 10 9 9 8 9 9 8 7 7 4 4 4 4 4 3 3 2 2 1 1 0 0 -0 -0 -0 -1 -1 -1 -1 -0 -0 -0 -0 -0 -0 0 -0 -0 -0 -0 -0 -0 -0 -0 0
11 11 9 9 10 10 9 9 9 8 7 7 6 4 5 4 4 3 2 2 2 2 1 1 1 1 0 1 1 0 -0 -1 -1 -0 -0 0 0 0 0 1 1 1 0 0 0 0 0 0 1
10 10 11 10 10 10 10 10 9 9 7 8 5 5 4 4 4 3 3 3 2 2 1 1 2 1 1 1 1 1 0 -0 -0 -0 -0 -0 0 0 0 0 0 1 1 0 0 0 0 0 1
10 12 12 12 11 10 9 12 11 9 9 9 7 5 5 4 3 4 3 3 2 2 1 2 1 1 1 1 1 1 1 1 -0 0 -0 -0 -0 0 0 0 0 0 -0 0 0 1 1 1 1
12 13 14 12 12 11 10 13 10 10 10 10 10 9 9 6 4 3 2 2 2 1 1 1 1 1 1 1 1 2 2 2 1 1 1 0 0 0 0 0 0 0 0 0 0 1 1 1 1
15 17 16 13 12 12 12 13 11 9 10 10 10 9 10 9 9 7 2 2 2 2 1 1 1 1 1 1 1 1 2 2 2 2 2 1 1 1 1 1 1 1 1 1 1 2 2 2 2
17 17 16 15 13 14 14 13 12 10 10 10 10 10 10 9 8 8 8 4 1 1 1 1 1 1 1 1 1 1 2 2 2 2 2 2 2 2 2 1 1 2 2 2 2 2 2 2 2
14 15 16 15 14 14 15 15 13 13 12 12 10 10 10 10 10 9 9 9 7 2 1 1 1 1 1 1 2 2 2 2 2 2 2 2 2 2 2 2 2 2 2 2 2 2 3 3 3
14 15 16 14 14 15 16 16 14 13 13 12 12 12 11 11 11 11 11 10 10 9 3 1 1 1 1 1 1 1 1 1 0 0 1 1 1 1 2 2 2 2 2 2 2 3 3 3 4
15 16 16 16 14 16 17 18 17 14 13 13 13 14 14 14 13 12 11 11 10 10 10 5 2 1 1 0 1 1 2 2 2 1 1 1 1 1 1 1 1 1 2 2 2 2 3 4 3
15 13 13 14 16 20 17 21 17 15 13 14 14 14 14 13 12 12 12 11 11 10 10 9 7 3 1 0 1 2 2 3 2 1 1 1 1 1 1 1 1 1 1 2 2 2 2 3 4
15 12 13 13 16 18 19 20 18 16 16 15 14 13 13 13 13 13 12 11 10 10 9 10 9 8 5 2 1 1 2 1 1 1 2 2 2 1 1 1 1 1 1 2 2 2 3 3 3
11 13 13 14 16 22 19 20 20 18 16 15 13 13 13 13 13 12 12 11 11 10 9 8 8 8 7 6 3 1 2 2 2 2 2 2 2 1 1 1 1 1 1 1 1 2 2 2 2
11 14 19 20 21 23 19 19 18 16 15 14 13 13 12 13 13 12 12 12 11 11 10 9 9 8 8 7 7 6 6 4 3 2 1 2 2 1 1 1 1 1 1 1 1 1 1 2 2
12 13 17 22 22 21 18 19 18 15 13 12 12 12 12 12 12 12 12 12 12 11 11 10 10 10 9 9 8 7 7 6 6 5 5 4 4 3 1 0 0 0 0 0 0 1 1 1 1
13 15 12 17 24 21 19 18 14 13 13 13 13 13 12 11 11 12 11 11 11 11 11 11 10 10 10 10 9 9 7 7 7 6 6 5 4 3 3 2 2 1 0 0 0 1 1 1 1
11 10 16 15 22 24 19 18 18 14 14 14 13 13 12 11 11 11 10 10 10 10 10 10 10 10 10 9 9 9 8 8 8 8 8 8 7 6 6 5 4 3 2 2 1 1 1 1 1
13 14 13 13 15 20 22 18 15 14 14 14 13 13 13 12 12 12 11 10 10 10 10 11 11 11 11 10 9 9 10 10 9 9 9 9 8 8 7 7 6 5 4 3 2 1 1 1 1
11 13 13 17 18 16 16 16 12 12 12 12 13 13 12 12 12 12 12 11 11 11 11 12 11 11 12 11 11 11 11 11 10 10 10 9 9 9 8 8 7 7 6 5 4 3 2 2 2

GFSSGP_con_lsi_207.txt.gz
Lid_Strength_Index
-1 -1 -1 2 8 8 11 10 7 8 8 5 5 6 7 6 8 11 1 0 -0 -0 -1 -1 -1 -2 -2 -2 -1 -1 -2 -1 -1 -1 -1 -1 -1 -2 -1 -1 -2 -1 -2 -1 -1 -1 -1 -1 -1
-1 0 1 4 10 12 12 8 9 7 6 5 5 5 6 7 4 4 3 0 -0 -1 -1 -1 -1 -1 -2 -2 -1 -1 -2 -1 -1 -1 -1 -1 -1 -1 -1 -1 -1 -1 -1 -1 -1 -1 -1 -1 -1
-0 0 4 7 9 12 12 8 7 6 5 5 6 4 5 6 3 3 1 -0 -0 -1 -1 -1 -1 -1 -1 -1 -1 -1 -2 -2 -2 -1 -1 -1 -1 -1 -1 -1 -1 -1 -1 -1 -1 -0 -1 -1 -1
1 2 4 9 10 8 8 7 6 6 5 5 5 7 4 2 3 1 -0 -0 -0 -0 -1 -1 -1 -1 -1 -1 -2 -2 -2 -2 -2 -1 -1 -1 -1 -1 -1 -1 -1 -1 -1 -1 -1 -0 -0 -0 -0
1 4 8 9 9 7 7 6 6 7 6 6 5 7 6 3 1 0 0 -0 0 -0 -1 -1 -1 -1 -1 -1 -1 -1 -2 -2 -2 -1 -1 -1 -1 -1 -1 -1 -1 -1 -1 -1 -1 -1 -1 -1 -1
5 5 10 11 9 7 6 5 6 6 5 5 6 6 5 2 2 1 0 0 -0 -0 -1 -1 0 -0 -1 -1 -1 -1 -1 -2 -2 -2 -1 -2 -1 -1 -1 -1 -1 -1 -1 -1 -1 -1 -1 -1 -1
6 7 9 9 9 8 7 5 6 6 6 6 4 6 5 3 1 1 0 -0 -0 -1 -1 -1 -1 -0 1 -0 -1 -1 -1 -1 -1 -2 -2 -2 -2 -2 -2 -2 -1 -1 -1 -1 -1 -1 -1 -1 -1
4 6 9 8 9 9 6 5 5 5 6 3 3 6 6 3 1 1 1 0 -0 -0 -1 -1 -1 -1 -1 -1 1 0 -0 -1 -1 -1 -1 -1 -1 -1 -1 -1 -2 -2 -1 -1 -1 -1 -1 -1 -1
3 8 10 9 9 8 5 6 4 3 5 4 4 4 3 2 1 2 2 1 1 0 -0 -1 -1 -1 -1 -1 -0 1 1 0 -0 -1 -0 -0 -1 -1 -1 -1 -1 -2 -2 -1 -1 -1 -1 -1 -1
6 8 9 6 6 7 6 6 5 5 5 5 4 3 2 2 3 3 3 3 2 1 0 -0 -1 -1 -1 -1 -1 -1 -1 -1 -1 -1 -1 -1 -1 -1 -1 1 0 -1 -1 -1 -1 -2 -1 -0 -0
6 8 6 6 6 5 6 6 5 6 7 5 5 4 3 3 3 3 3 3 2 1 0 -0 -0 -1 -1 -1 -1 -1 -1 -1 -1 -1 -1 -1 -1 -1 -1 -1 -1 -1 1 -1 -1 -1 -1 -1 -1
8 6 6 6 6 6 7 5 6 6 5 4 4 3 3 4 4 3 3 2 2 1 1 0 -0 -0 -1 -1 -1 -1 -1 -1 -1 -1 -1 -1 -1 -1 -1 -1 -1 -1 -1 -1 -1 -1 -1 -1 -1
7 6 6 6 6 6 6 6 6 6 5 4 3 3 3 3 3 2 2 2 1 2 1 0 -0 -0 -0 -0 -1 -1 -1 -1 -1 -1 -1 -1 -1 -1 -1 -1 -1 -1 -1 -1 -1 -1 -1 -1 -1
7 6 6 6 6 6 7 7 6 6 5 5 5 4 3 3 3 3 2 2 2 1 1 0 0 -0 -0 -0 -0 -0 -1 -1 -1 -1 -1 -1 -1 -1 -1 -1 -1 -1 -1 -1 -1 -0 -0 -0 -1
8 9 7 7 7 7 7 8 8 5 6 6 6 5 5 3 3 3 2 2 1 1 1 0 0 -0 -0 -0 -0 -1 -1 -1 -1 -1 -1 -1 -1 -1 -1 -0 -0 -1 -1 -1 -1 -1 -1 -0 -0
10 10 10 7 7 8 7 10 7 7 7 7 7 6 6 6 5 4 3 1 1 1 1 0 0 -0 -0 -0 -0 -0 -1 -1 -1 -1 -1 -1 -1 -1 -1 -0 -0 -1 -1 -1 -0 -0 0 0 0
11 13 12 11 8 8 8 9 8 6 7 7 7 7 6 6 6 6 6 6 5 2 1 1 0 0 0 -0 -0 -0 -1 -0 -1 -1 -1 -1 -1 -1 -0 -0 -1 -1 -0 -0 0 0 0 1 1
13 13 12 12 11 10 9 9 8 7 7 7 7 7 7 7 7 6 6 5 5 5 3 1 0 0 0 0 -0 -0 -0 -0 -1 -0 -1 -1 -1 -1 -1 -0 -0 -1 -0 0 0 1 0 1 1
9 11 12 12 11 11 11 10 9 8 8 8 8 8 8 7 6 6 6 5 5 5 5 5 2 0 0 1 1 1 1 1 0 -0 -0 -0 -0 -0 -0 -0 0 -0 0 1 0 1 2 2 1
9 11 12 12 11 11 12 12 10 10 11 10 9 8 8 8 7 6 6 5 5 5 6 5 4 2 0 0 0 1 1 0 0 0 0 -0 -0 0 0 0 0 0 1 1 1 2 3 2 2
10 11 11 12 12 12 13 13 13 11 10 10 9 8 8 9 9 7 6 5 5 5 5 5 4 3 1 0 0 0 0 1 1 1 0 -0 -0 -0 -0 -0 1 0 1 1 1 1 2 3 2
12 9 10 11 13 15 12 17 14 13 12 12 11 10 10 9 9 9 9 8 7 5 4 5 4 4 3 0 1 1 2 3 1 1 0 0 -1 -0 -0 -0 -0 0 0 1 1 1 1 2 3
10 9 10 10 12 13 13 15 13 13 14 13 12 11 11 10 10 10 10 9 9 8 7 7 7 6 5 4 4 3 3 3 2 2 2 1 1 0 0 -0 -0 0 0 0 0 1 1 1 2
7 9 10 11 12 18 13 15 15 14 13 13 12 12 12 11 11 11 10 10 9 9 8 8 8 8 7 6 5 4 4 4 4 3 3 3 2 1 1 1 1 -0 0 0 0 0 1 1 1
8 11 18 18 18 18 13 14 14 13 12 12 12 12 12 12 11 11 11 10 10 10 9 9 9 9 8 8 8 8 7 6 6 6 6 6 6 5 5 5 4 3 2 2 1 2 1 1 1
10 11 16 21 19 17 15 17 15 13 12 12 12 11 11 11 11 11 10 10 10 10 10 10 10 11 10 10 9 9 9 9 8 8 8 8 8 8 7 7 6 6 5 4 3 2 2 1 1
11 13 10 14 16 16 15 15 13 12 13 13 12 12 12 11 11 11 10 10 11 10 10 10 11 11 11 10 10 10 10 10 10 9 9 9 9 9 8 8 8 7 6 6 6 5 3 2 2
9 8 14 13 19 18 16 16 15 14 14 13 13 12 12 11 10 9 9 10 10 10 10 10 10 11 10 10 9 10 10 9 9 9 9 9 9 9 8 8 8 7 7 6 6 6 5 5 4
11 12 12 11 14 16 18 15 10 12 12 12 12 11 11 10 10 9 8 9 9 9 9 10 10 11 11 10 10 10 10 10 10 10 10 9 9 9 9 8 8 8 8 7 7 8 8 8 7
10 11 11 14 17 14 15 15 10 10 10 10 10 10 9 9 9 8 8 9 9 9 9 10 10 10 10 10 10 10 10 11 11 11 11 11 11 10 10 9 9 8 8 8 8 9 8 8 8

GFSSGP_con_lsi_210.txt.gz
Lid_Strength_Index
-1 -0 0 3 10 10 12 11 8 9 8 6 5 6 7 7 9 12 2 1 1 1 -0 -1 -1 -2 -2 -2 -2 -2 -2 -1 -1 -1 -1 -2 -2 -2 -2 -2 -2 -2 -2 -2 -2 -2 -2 -2 -2
1 0 2 5 11 14 13 9 9 8 6 5 6 6 7 9 5 4 3 1 0 -0 -0 -1 -1 -1 -2 -2 -1 -2 -2 -2 -1 -2 -2 -2 -1 -1 -2 -1 -1 -1 -1 -1 -1 -1 -1 -1 -1
0 1 6 8 11 13 13 9 8 7 6 6 7 5 6 7 4 3 1 0 1 0 -0 -1 -1 -1 -2 -1 -1 -2 -2 -2 -2 -2 -2 -1 -1 -1 -1 -1 -1 -1 -1 -1 -1 -1 -1 -1 -1
3 3 5 10 12 9 9 8 7 7 6 5 5 8 5 3 3 2 1 0 1 0 -0 -0 -1 -1 -1 -1 -2 -2 -2 -2 -2 -2 -1 -1 -1 -1 -1 -1 -1 -1 -1 -1 -1 -0 -0 -1 -1
2 5 10 11 11 9 8 6 6 7 7 6 6 8 7 3 1 1 1 1 2 1 -0 -1 -1 -1 -1 -1 -2 -2 -2 -2 -2 -2 -2 -2 -1 -1 -1 -1 -1 -1 -1 -1 -0 -1 -1 -1 -1
6 6 11 13 10 9 7 7 7 7 6 6 7 7 7 3 2 1 1 1 1 1 -0 -0 1 -0 -1 -1 -1 -1 -2 -2 -2 -2 -2 -2 -2 -2 -1 -1 -1 -1 -1 -1 -1 -1 -1 -1 -1
7 9 11 10 11 9 7 6 8 7 7 7 6 8 6 4 2 1 1 1 1 0 0 -0 -0 -0 0 -0 -0 -1 -1 -1 -1 -2 -2 -2 -2 -2 -2 -2 -2 -1 -1 -1 -1 -2 -2 -1 -1
5 8 10 10 11 10 7 6 5 6 7 5 5 8 8 4 2 1 1 1 1 1 1 1 0 -0 -0 -0 1 0 -0 -1 -1 -1 -1 -1 -0 -1 -1 -1 -2 -2 -2 -2 -2 -2 -1 -1 -2
3 10 12 10 10 9 6 7 6 5 6 5 5 5 4 2 2 2 2 2 2 2 1 1 1 0 0 0 0 1 1 0 -0 -1 -0 -0 -0 -0 -0 -0 -1 -2 -2 -2 -1 -2 -2 -1 -1
7 10 10 7 7 8 7 7 6 7 6 6 6 4 3 3 3 3 3 4 3 3 2 1 1 1 1 0 0 -0 -0 -0 -1 -0 -0 0 -0 0 -0 1 1 -1 -1 -2 -2 -2 -1 -0 0
7 10 7 6 7 6 6 7 6 7 8 6 6 6 4 4 4 3 3 3 3 2 2 1 1 1 1 1 1 1 1 0 0 0 0 0 0 0 1 1 1 1 2 1 0 0 0 1 1
9 6 6 6 7 7 7 6 8 7 7 5 4 4 4 4 4 4 4 3 2 2 1 1 1 1 1 0 1 1 1 1 1 1 0 1 1 1 1 1 1 1 1 2 1 1 1 1 1
8 7 6 7 7 7 6 7 7 8 6 5 4 4 4 4 4 3 3 2 2 2 2 1 1 1 1 1 1 1 1 1 1 1 0 0 1 1 1 1 1 1 1 1 1 1 1 1 1
8 6 7 7 7 7 8 8 8 7 6 6 5 4 4 4 4 3 3 3 3 2 2 1 1 1 1 0 1 1 1 1 1 1 1 0 1 1 1 1 1 1 1 1 1 1 2 2 1
8 10 9 8 7 8 8 9 9 7 7 7 7 6 6 4 3 4 3 3 2 2 1 1 1 1 1 1 1 1 1 1 1 1 1 1 0 1 1 1 1 1 1 1 1 1 1 2 1
10 10 13 8 8 9 8 12 9 8 9 9 9 9 8 7 8 8 8 8 8 3 2 1 1 1 1 1 1 1 1 1 0 1 0 0 1 1 1 2 2 1 1 1 2 2 2 2 2
11 14 13 12 9 9 10 11 9 8 9 9 9 9 9 10 9 9 8 8 7 7 7 4 1 1 1 1 1 0 1 0 0 0 0 0 0 1 1 2 2 2 2 2 2 2 2 2 2
14 13 12 12 12 11 11 10 10 9 9 10 11 11 11 10 10 8 7 7 6 6 6 6 5 2 1 1 1 1 1 0 0 0 0 0 0 0 0 1 2 1 2 1 2 2 2 1 1
10 11 12 12 11 12 12 11 12 11 11 11 11 12 11 10 8 7 6 6 6 6 6 5 5 3 2 2 1 1 2 1 1 0 0 -0 0 0 0 0 1 0 2 2 1 1 2 2 2
10 12 12 11 11 12 12 15 13 13 12 11 11 11 10 9 8 7 7 6 6 6 5 5 5 3 1 1 1 1 1 1 1 0 0 0 0 -0 0 1 1 1 1 1 1 2 2 2 2
11 12 11 12 12 12 12 14 14 13 12 12 11 10 10 10 10 8 8 8 7 7 7 6 5 5 4 2 1 1 0 1 1 1 0 0 0 -0 0 0 0 1 1 1 1 2 2 3 2
13 9 10 11 13 16 12 18 14 13 14 13 13 13 12 10 9 9 9 9 9 9 7 7 6 6 5 5 4 4 3 3 2 3 2 2 1 1 1 1 1 1 0 1 1 0 1 1 3
11 9 10 11 13 14 14 17 15 13 15 14 13 13 13 12 11 11 10 10 9 9 9 9 9 8 8 7 7 7 6 5 5 5 5 5 4 4 6 5 4 3 3 2 2 2 3 2 2
8 10 11 12 14 19 15 15 15 15 15 14 13 13 12 12 12 11 11 11 11 11 11 11 11 11 10 10 10 10 10 9 9 8 8 7 6 6 7 6 6 5 5 5 4 2 2 2 2
9 13 19 20 20 20 13 16 15 14 14 13 13 13 13 12 12 12 12 12 12 12 12 12 12 12 12 11 12 12 11 10 10 10 10 10 10 9 9 9 8 8 8 7 7 6 5 4 4
11 12 18 22 21 19 14 18 17 14 13 13 12 12 12 13 12 12 12 12 12 12 12 12 12 13 12 12 12 12 12 12 11 11 11 12 11 11 10 10 10 9 9 9 8 8 7 6 6
12 14 11 15 18 18 17 17 14 14 14 14 14 13 14 13 12 12 12 12 13 12 12 13 13 13 13 12 12 12 13 12 12 12 12 12 11 10 10 10 9 9 8 8 8 8 8 7 7
10 9 15 15 20 22 18 18 19 16 15 14 14 14 14 13 12 12 12 12 12 12 12 12 12 13 12 12 11 12 12 12 12 11 12 12 11 11 10 10 9 9 8 8 8 9 9 9 8
12 13 13 13 15 19 20 19 14 14 14 15 14 13 13 13 12 11 12 12 12 12 12 12 12 12 13 12 12 12 12 12 12 12 12 12 12 12 11 10 10 10 10 10 11 11 10 11 10
10 12 12 17 18 15 16 18 12 12 13 13 13 12 12 11 11 11 11 11 11 11 12 12 12 12 12 12 12 12 12 12 12 12 12 12 12 11 10 10 10 9 9 10 11 11 11 11 10

GFSSGP_con_lsi_216.txt.gz
Lid_Strength_Index
2 1 1 5 10 11 14 11 8 9 10 7 6 7 9 8 10 12 3 3 2 -0 -0 -1 -1 -2 -1 -1 -1 -1 -1 -2 -2 -2 -2 -2 -2 -2 -2 -2 -2 -2 -2 -2 -2 -2 -2 -2 -2
2 1 5 8 12 16 14 10 11 9 7 6 6 7 8 10 5 5 5 3 1 -0 -0 -0 -1 -2 -1 -1 -2 -1 -2 -2 -2 -2 -2 -2 -2 -2 -2 -2 -1 -1 -1 -1 -1 -1 -1 -1 -1
2 2 7 10 12 15 14 10 10 8 7 7 7 6 7 8 5 4 3 2 -0 -0 -0 -0 -1 -2 -2 -2 -2 -2 -2 -2 -2 -2 -2 -2 -2 -2 -1 -1 -1 -1 -1 -1 -1 -1 -1 -1 -1
5 5 7 11 13 12 11 9 7 8 7 6 6 9 6 3 4 3 2 0 0 0 -0 -0 -1 -2 -1 -2 -2 -2 -2 -2 -2 -2 -2 -1 -1 -1 -1 -1 -1 -1 -1 -1 -1 -1 -1 -0 -0
5 7 11 13 11 12 9 7 7 9 8 7 7 9 8 4 2 2 1 1 1 0 -0 -0 -1 -1 -1 -2 -2 -2 -2 -2 -2 -2 -2 -1 -1 -1 -1 -1 -1 -1 -1 -1 -1 -1 -1 -1 -1
8 8 13 14 13 10 9 7 7 8 8 8 8 8 8 3 3 2 2 2 -0 0 -0 -0 1 -0 -1 -1 -1 -2 -2 -2 -2 -2 -2 -1 -1 -1 -1 -1 -1 -1 -1 -1 -1 -1 -1 -1 -1
9 10 13 13 12 10 8 8 9 9 9 8 6 9 7 5 3 3 2 1 0 -0 -0 0 0 1 1 -0 -1 -1 -1 -2 -2 -2 -2 -2 -2 -2 -2 -2 -2 -1 -1 -1 -1 -1 -1 -1 -1
7 9 13 12 12 12 8 8 7 8 8 6 5 9 8 5 3 3 2 1 1 0 0 0 0 0 0 0 1 0 -0 -1 -1 -1 -1 -0 -0 -1 -1 -1 -1 -2 -2 -2 -2 -2 -1 -1 -2
6 11 13 11 11 10 7 8 7 6 7 6 5 6 4 2 3 3 4 4 2 1 0 0 0 0 1 1 1 2 1 1 0 0 1 1 0 -0 -0 0 -1 -2 -2 -2 -2 -2 -2 -1 -1
8 12 11 8 9 10 8 8 8 7 8 8 6 4 3 3 3 4 4 5 4 3 1 0 1 0 0 -1 0 1 0 1 0 0 1 1 1 1 0 1 1 -0 -1 -1 -2 -2 -1 -0 1
8 11 8 8 7 8 8 8 8 8 9 8 8 6 5 5 5 4 4 3 4 4 3 1 0 0 0 0 1 1 0 1 1 1 1 1 1 2 1 2 2 2 2 2 1 1 1 1 2
10 8 8 7 7 7 9 9 9 9 8 5 5 4 4 5 5 5 4 4 3 2 2 4 2 1 1 2 1 1 1 1 1 1 1 1 2 2 2 2 2 2 2 2 2 2 2 2 2
9 8 8 8 8 8 7 9 9 9 6 4 4 4 5 4 4 4 3 3 3 3 2 2 3 4 3 3 2 1 1 1 1 1 1 1 2 2 2 2 2 2 2 2 2 2 2 2 2
8 8 8 8 9 9 8 9 9 9 6 5 5 8 8 9 9 10 7 7 4 2 2 2 2 3 3 3 3 3 3 3 2 2 2 2 2 2 2 2 2 2 2 2 2 2 2 2 2
8 10 10 10 9 10 9 9 10 8 7 10 11 11 11 10 9 10 10 10 11 10 6 3 2 2 2 2 1 1 1 1 1 1 1 1 1 2 2 2 3 3 3 3 3 3 3 3 3
11 11 13 10 9 10 9 12 12 11 10 13 12 12 11 10 10 9 10 9 9 9 9 7 4 2 2 2 2 1 1 0 0 1 0 0 1 1 2 2 2 2 2 3 3 2 3 3 3
11 14 14 12 10 10 10 14 13 11 11 13 12 11 10 10 9 9 9 9 8 8 7 7 5 5 2 1 1 1 1 0 0 0 -0 0 -0 0 1 1 1 1 2 2 2 1 2 2 2
15 14 12 13 10 12 14 14 13 13 12 14 13 12 11 11 11 10 10 9 9 9 8 7 7 7 4 1 1 0 1 1 1 2 2 2 1 1 1 0 0 0 0 1 0 1 0 1 1
10 12 13 11 11 13 14 14 13 13 13 13 12 13 12 12 11 10 10 10 10 10 9 8 7 8 6 4 2 1 2 3 3 3 4 5 5 5 4 3 2 2 0 0 0 1 1 1 1
10 12 13 11 10 12 14 15 13 13 14 13 13 13 13 12 12 11 11 11 11 10 9 9 8 9 8 6 3 2 3 4 5 5 5 5 6 6 6 6 5 4 4 5 4 4 3 3 3
11 12 13 13 11 11 12 14 13 13 13 13 13 13 13 12 12 12 12 12 11 11 11 10 10 9 9 8 5 5 5 6 7 7 7 7 8 8 8 8 7 7 7 7 7 7 6 6 4
13 9 11 12 13 17 11 19 13 14 15 15 15 14 14 13 12 12 12 12 12 12 12 11 11 10 10 9 8 9 9 11 10 9 9 9 9 10 9 10 9 10 9 10 9 9 8 8 9
12 9 11 11 13 14 14 17 15 14 15 15 15 14 14 13 13 14 13 13 13 13 13 12 11 11 12 11 11 11 11 11 11 11 11 11 11 11 11 11 11 11 11 11 11 11 10 10 11
9 11 11 12 14 19 15 16 17 15 14 14 14 13 13 13 13 13 12 13 14 14 13 13 13 13 12 13 13 13 13 13 13 13 13 13 12 12 12 12 12 11 11 11 11 11 12 11 12
10 13 19 20 20 20 14 16 17 14 13 14 14 13 13 13 14 13 13 13 14 14 13 13 13 14 13 13 14 14 14 13 14 14 14 14 14 13 13 12 12 12 12 11 12 12 12 13 13
12 13 18 22 21 20 15 18 17 15 13 13 13 13 13 13 13 13 13 13 14 14 14 14 14 14 14 14 14 14 14 14 14 14 14 14 14 14 13 12 12 12 11 12 12 12 12 13 12
13 15 12 16 18 19 17 17 15 15 15 14 14 13 13 13 13 13 13 13 14 14 14 15 14 14 14 14 14 14 14 14 14 14 14 14 14 13 13 12 12 11 11 12 12 12 12 12 12
11 10 16 15 21 22 19 20 19 17 16 15 14 14 13 13 13 13 14 14 14 14 15 14 14 15 14 14 14 14 14 14 14 14 15 14 14 13 13 12 12 12 12 12 12 12 12 13 12
13 14 13 14 16 20 22 19 15 15 15 15 15 14 13 13 13 14 14 14 15 15 15 15 15 15 15 14 14 14 15 14 14 15 15 14 14 13 13 12 12 12 12 12 13 13 13 13 12
11 12 13 17 18 17 17 18 14 13 14 14 14 13 13 12 13 14 14 14 15 15 15 15 14 15 14 14 14 14 14 15 15 15 15 14 14 14 13 12 12 13 12 12 12 12 12 13 12

GFSSGP_con_lsi_222.txt.gz
Lid_Strength_Index
2 3 3 6 10 11 14 12 10 10 10 8 7 8 9 9 10 13 3 2 1 0 -0 -0 -1 -2 -2 -2 -1 -1 -2 -2 -2 -2 -2 -2 -2 -2 -2 -2 -2 -2 -2 -2 -2 -2 -2 -2 -2
2 2 5 8 12 16 14 10 11 10 8 6 7 8 8 11 5 5 3 2 -0 0 -0 -0 -1 -1 -1 -1 -2 -1 -2 -2 -2 -2 -2 -2 -2 -2 -2 -2 -1 -1 -1 -1 -1 -1 -1 -1 -1
3 4 7 10 13 15 14 11 10 9 7 8 8 6 8 9 5 4 3 1 0 0 0 -0 -1 -2 -1 -1 -1 -2 -2 -2 -2 -2 -1 -1 -1 -1 -1 -1 -1 -1 -1 -1 -1 -1 -1 -1 -1
5 5 8 12 14 12 11 10 8 8 8 6 7 9 6 3 4 4 1 -0 0 0 0 -0 -1 -2 -1 -2 -2 -2 -2 -2 -2 -1 -1 -1 -1 -1 -1 -1 -1 -1 -1 -1 -1 -1 -1 -1 -2
5 7 11 14 13 11 9 9 8 9 9 8 8 11 9 4 4 2 1 0 0 1 0 0 -1 -1 -1 -2 -2 -2 -2 -2 -1 -1 -1 -1 -1 -1 -1 -1 -1 -1 -1 -2 -2 -2 -2 -1 -2
8 9 13 15 12 12 9 8 8 9 8 8 8 9 8 4 4 1 0 0 -0 0 0 0 1 -0 -1 -1 -2 -2 -2 -2 -2 -1 -1 -1 -1 -1 -1 -1 -1 -1 -1 -2 -2 -2 -2 -2 -2
9 11 13 12 12 12 11 8 9 9 9 9 6 10 6 4 3 2 2 1 1 0 0 0 0 1 1 -0 -1 -1 -2 -2 -2 -2 -2 -2 -2 -1 -1 -2 -1 -1 -2 -2 -2 -2 -2 -1 -2
8 10 12 12 13 12 10 10 9 9 9 6 6 10 8 4 2 2 2 2 2 0 0 -0 -0 -1 1 0 1 0 -1 -1 -1 -1 -1 -0 -1 -1 -1 -1 -1 -1 -1 -1 -1 -1 -1 -1 -1
7 11 14 12 12 11 9 10 9 6 7 7 6 7 5 3 2 2 2 2 1 1 1 -0 -0 -1 1 -0 1 1 1 0 0 0 1 1 1 1 1 1 -0 -1 -2 -1 -1 -1 -2 -1 -1
9 12 11 9 8 10 9 9 8 8 9 8 6 4 4 3 3 3 3 4 2 2 1 2 1 0 1 -0 -0 -1 -1 -0 0 1 1 1 1 1 1 2 2 1 1 -0 -1 -1 -1 0 2
9 11 10 9 8 8 9 10 8 8 10 8 8 6 5 5 3 4 4 4 3 3 1 1 1 1 1 1 1 -0 -1 -1 0 1 1 1 1 2 2 2 2 2 3 2 2 2 2 2 2
10 8 8 8 9 8 10 9 9 8 8 6 5 5 6 4 4 4 4 4 4 3 2 1 1 1 1 1 1 1 1 1 1 1 1 2 2 2 2 2 2 2 3 3 3 3 3 3 2
9 9 8 9 9 9 7 8 8 8 5 4 5 6 5 5 5 5 3 4 2 4 2 2 1 1 1 1 1 1 1 1 0 1 0 -0 1 2 1 2 1 3 2 2 3 3 3 3 3
8 8 9 9 10 9 9 11 8 12 8 9 10 10 11 11 10 10 9 10 9 7 6 1 3 2 1 2 1 1 0 0 1 1 2 1 1 1 2 2 2 3 2 2 2 3 3 3 3
9 10 10 10 10 10 10 13 13 12 11 11 10 10 10 10 11 12 11 10 10 9 7 6 4 2 2 2 2 1 0 0 0 0 0 0 1 1 1 1 1 1 1 2 1 1 1 2 1
11 11 13 11 10 11 10 14 14 11 11 12 12 12 12 12 11 11 11 10 10 10 9 8 6 2 2 1 1 0 1 3 5 6 5 5 5 2 2 2 2 0 1 1 1 1 1 1 1
11 15 14 13 12 12 12 16 14 11 11 12 11 13 12 13 12 12 12 11 11 11 10 10 9 7 1 1 2 4 5 6 7 8 8 8 7 6 5 5 4 4 4 5 5 4 3 3 4
15 14 14 14 13 13 15 16 14 12 12 13 13 14 13 13 12 12 12 11 11 11 10 10 9 9 1 3 4 5 6 8 9 9 10 9 9 7 7 7 7 6 7 8 8 7 6 4 7
11 12 13 14 12 14 16 15 15 13 12 13 13 13 14 14 12 12 12 13 12 13 12 11 11 10 5 4 5 7 8 8 9 9 9 9 9 9 9 9 9 8 9 9 9 8 8 7 8
12 13 14 11 11 14 15 16 14 14 14 14 14 14 13 13 13 13 13 13 14 14 13 13 11 12 8 7 6 7 9 9 9 9 10 10 10 10 9 10 10 10 10 10 11 10 10 9 10
12 13 14 13 12 12 14 15 15 15 14 14 14 14 13 13 14 14 14 14 14 14 14 13 13 12 10 10 8 9 10 11 11 11 11 11 11 11 11 11 11 11 11 12 12 12 13 13 12
14 10 11 13 14 17 13 19 14 16 16 15 14 14 14 14 14 14 14 14 14 14 13 13 13 12 11 11 11 12 12 13 13 13 12 12 12 13 12 12 12 13 13 13 13 13 13 12 13
12 9 11 12 14 15 15 17 15 15 17 16 15 15 15 14 14 14 14 14 14 13 14 14 13 14 14 13 13 13 14 14 14 14 14 14 14 13 13 12 12 13 13 13 13 13 13 13 13
9 11 12 12 14 19 16 16 16 16 15 14 14 14 14 14 14 14 14 14 14 14 14 14 14 15 14 15 14 15 15 15 15 15 15 15 14 14 13 12 12 13 13 13 12 13 13 13 12
10 13 19 20 20 20 14 16 15 13 11 13 14 14 14 14 14 15 15 15 15 15 14 14 14 15 15 15 15 15 15 15 16 16 16 16 15 14 14 13 12 13 13 13 12 13 13 14 13
12 13 18 22 22 19 15 18 15 15 12 13 13 14 14 14 14 14 14 15 15 15 15 15 15 15 15 15 15 15 15 15 16 16 16 16 15 14 13 13 12 13 13 13 13 14 14 14 13
13 15 12 16 19 19 17 15 16 15 14 13 13 13 14 13 14 14 15 15 15 15 15 15 15 15 15 15 15 16 16 16 16 16 16 15 14 13 13 13 13 13 13 13 13 13 14 14 13
12 10 16 15 21 22 18 18 16 17 15 14 14 14 14 14 14 15 15 15 15 15 15 15 15 15 15 15 16 16 16 16 16 16 16 16 15 14 13 13 14 13 13 13 14 14 14 14 14
13 14 14 14 16 20 21 18 15 15 14 14 14 14 14 14 15 15 15 16 16 16 16 16 15 15 15 15 15 15 16 16 15 16 16 15 15 14 14 14 14 14 13 13 13 13 14 15 14
12 13 13 17 18 16 17 18 15 14 13 13 14 14 14 14 14 15 15 15 16 16 16 16 16 15 15 15 15 16 16 16 16 16 16 15 15 15 14 14 14 14 13 13 14 14 15 15 15